FALCON 9 R/B, 58996

Orbit data source: Space-Track

FALCON 9 R/B, 58996 is space debris in HEO originally from a launch on Tue, 20 Feb 2024 UTC launched from the Air Force Eastern Test Range (AFETR). Debris objects in space refer to the collection of defunct objects orbiting the Earth. Examples of debris include non-operational satellites, rocket bodies, and fragments generated from explosions, collisions, or faulty payload assembly.

Loading next visibility...
Identifier
58996, 2024-035B
Orbit
HEO
Country
Flag of USUS
Related business
Manufacturer
SpaceX
Mission
Spacecraft
Bus & Motor
F9ST2, Unknown motor
Mass
~4,000 kg wet, ~4,000 kg dry
Launch date (UTC)
2024-02-20 (2 years ago)
Launch vehicle
Unknown
Launch site
Air Force Eastern Test Range (AFETR)
Object type
Payload
Rocket body
Debris
Shape & HBR
Cyl, 7.8 m
Radar Cross Section
39.980 m², Large (>1 m²)

Expand to show TLE details & history
Last TLE update: 16 hours ago

TLE from 16 hours ago
0 FALCON 9 R/B
1 58996U 24035B   25340.61724552  .00001022  00000-0  30834-2 0  9992
2 58996  18.7164 141.2244 8012141  80.9473 352.6722  1.39641574  9110
Epoch: 2025-12-06T14:48Z
TLE epoch observation values (Epoch: 2025-12-06T14:48:50.012Z)
Latitude
0.00006°
Longitude
-156.96237°
Altitude
4,395.151 km
Speed
7.887 km/s
True Right ascension
09h 23m 33s
True Declination
0° 00' 00"
Sunlit
Object was in daylight at epoch
Visualization orbit readout
Latitude
Unknown
Longitude
Unknown
Altitude
Unknown
Speed
Unknown
Apparent Right ascension
Unknown
Apparent Declination
Unknown
Sunlit
N/A
Visualization observer readout
Local Sidereal Time
05:05:01
Azimuth
Unknown
Elevation
Unknown
Doppler factor
Unknown
Orbital elements
Apogee altitude
54,532.104 km
Perigee altitude
344.05 km
Semi-major axis
33,816.214 km
Eccentricity
0.80121
Inclination
18.7164°
RAAN
141.2244°
Arg. of periapsis
80.9473°
True anomaly
280.46611°
Mean anomaly
352.6722°
Eccentric anomaly
329.09194°
Mean motion
0.34902 °/min
Orbital period
1,031.45 mins
BSTAR
0.0030834
Loading maneuver chart data...
Computing Atmospheric mass density...
Loading historical data...
Loading historical data...
Loading historical data...
Loading historical data...
Loading historical data...
Loading historical data...
Loading historical data...
Other satellites on launch #35 in the year 2024 (2024-02-20 UTC)

Documentation

Showing up to 5 results
|